START_TIME,STEP,MOV.,M34,t_acc.,L5,t_acc.,L18,t_acc.,L14,t_acc.
1980-11-14 15:00:13.270 ,7,0,0.,12.0,3.,12.0,0.,12.0,0.,12.0
1980-11-14 15:00:25.270 ,7,0,0.,12.0,3.,12.0,0.,12.0,0.,12.0
1980-11-14 15:00:37.270 ,6,1,0.,12.0,3.,12.0,0.,12.0,0.,12.0
1980-11-14 15:00:49.270 ,6,1,0.,12.0,1.,12.0,0.,12.0,0.,12.0
1980-11-14 15:01:01.270 ,6,0,0.,12.0,0.,12.0,0.,12.0,0.,12.0
1980-11-14 15:01:13.270 ,6,0,0.,12.0,0.,12.0,0.,12.0,0.,12.0
1980-11-14 15:01:25.270 ,5,1,0.,12.0,0.,12.0,0.,12.0,0.,12.0
1980-11-14 15:01:37.270 ,5,1,0.,12.0,0.,12.0,0.,12.0,0.,12.0
1980-11-14 15:01:49.270 ,5,0,0.,12.0,0.,12.0,0.,12.0,0.,12.0
1980-11-14 15:02:01.270 ,5,0,0.,12.0,0.,12.0,0.,12.0,0.,12.0
1980-11-14 15:02:13.270 ,4,1,0.,12.0,0.,12.0,0.,12.0,0.,12.0
1980-11-14 15:02:25.270 ,4,1,0.,12.0,0.,12.0,0.,12.0,0.,12.0
1980-11-14 15:02:37.270 ,4,0,0.,12.0,0.,12.0,0.,12.0,0.,12.0
1980-11-14 15:02:49.270 ,4,0,0.,12.0,0.,12.0,0.,12.0,0.,12.0
1980-11-14 15:03:01.270 ,3,1,0.,12.0,0.,12.0,0.,12.0,0.,12.0
1980-11-14 15:03:13.270 ,3,1,0.,12.0,0.,12.0,0.,12.0,0.,12.0
1980-11-14 15:03:25.270 ,3,0,0.,12.0,0.,12.0,0.,12.0,0.,12.0
1980-11-14 15:03:37.270 ,3,0,0.,12.0,0.,12.0,0.,12.0,0.,12.0
1980-11-14 15:03:49.270 ,2,1,0.,12.0,0.,12.0,0.,12.0,0.,12.0
1980-11-14 15:04:01.270 ,2,1,0.,12.0,0.,12.0,0.,12.0,0.,12.0
1980-11-14 15:04:13.270 ,2,0,0.,12.0,0.,12.0,0.,12.0,0.,12.0
1980-11-14 15:04:25.270 ,2,0,0.,12.0,0.,12.0,0.,12.0,0.,12.0
1980-11-14 15:04:37.270 ,1,1,0.,12.0,0.,12.0,0.,12.0,0.,12.0
1980-11-14 15:04:49.270 ,1,1,0.,12.0,0.,12.0,0.,12.0,0.,12.0
1980-11-14 15:05:01.270 ,1,0,0.,12.0,0.,12.0,0.,12.0,0.,12.0
1980-11-14 15:05:13.270 ,1,0,0.,12.0,0.,12.0,0.,12.0,0.,12.0
1980-11-14 15:05:25.270 ,0,1,0.,12.0,0.,12.0,0.,12.0,0.,12.0
1980-11-14 15:05:37.270 ,0,1,0.,12.0,0.,12.0,0.,12.0,0.,12.0
1980-11-14 15:05:49.270 ,0,0,0.,12.0,0.,12.0,0.,12.0,0.,12.0
1980-11-14 15:06:01.270 ,0,0,0.,12.0,0.,12.0,0.,12.0,0.,12.0
1980-11-14 15:06:13.270 ,0,1,0.,12.0,0.,12.0,0.,12.0,0.,12.0
1980-11-14 15:06:25.270 ,0,1,0.,12.0,0.,12.0,0.,12.0,0.,12.0
1980-11-14 15:06:37.270 ,0,0,0.,12.0,0.,12.0,0.,12.0,0.,12.0
1980-11-14 15:06:49.270 ,0,0,0.,12.0,0.,12.0,0.,12.0,0.,12.0
1980-11-14 15:07:01.270 ,1,1,0.,12.0,0.,12.0,0.,12.0,0.,12.0
1980-11-14 15:07:13.270 ,1,1,0.,12.0,0.,12.0,0.,12.0,0.,12.0
1980-11-14 15:07:25.270 ,1,0,0.,12.0,0.,12.0,0.,12.0,0.,12.0
1980-11-14 15:07:37.270 ,1,0,0.,12.0,0.,12.0,0.,12.0,0.,12.0
1980-11-14 15:07:49.270 ,2,1,0.,12.0,0.,12.0,0.,12.0,0.,12.0
1980-11-14 15:08:01.270 ,2,1,0.,12.0,0.,12.0,0.,12.0,0.,12.0
1980-11-14 15:08:13.270 ,2,0,0.,12.0,0.,12.0,0.,12.0,0.,12.0
1980-11-14 15:08:25.270 ,2,0,0.,12.0,0.,12.0,0.,12.0,0.,12.0
1980-11-14 15:08:37.270 ,3,1,0.,12.0,0.,12.0,0.,12.0,0.,12.0
1980-11-14 15:08:49.270 ,3,1,0.,12.0,0.,12.0,0.,12.0,0.,12.0
1980-11-14 15:09:01.270 ,3,0,0.,12.0,0.,12.0,0.,12.0,0.,12.0
1980-11-14 15:09:13.270 ,3,0,0.,12.0,0.,12.0,0.,12.0,0.,12.0
1980-11-14 15:09:25.270 ,4,1,0.,12.0,0.,12.0,0.,12.0,0.,12.0
1980-11-14 15:09:37.270 ,4,1,0.,12.0,0.,12.0,0.,12.0,0.,12.0
1980-11-14 15:09:49.270 ,4,0,0.,12.0,0.,12.0,0.,12.0,0.,12.0
1980-11-14 15:10:01.270 ,4,0,0.,12.0,0.,12.0,0.,12.0,0.,12.0
1980-11-14 15:10:13.270 ,5,1,0.,12.0,0.,12.0,0.,12.0,0.,12.0
1980-11-14 15:10:25.270 ,5,1,0.,12.0,0.,12.0,0.,12.0,0.,12.0
1980-11-14 15:10:37.270 ,5,0,0.,12.0,0.,12.0,0.,12.0,0.,12.0
1980-11-14 15:10:49.270 ,5,0,0.,12.0,0.,12.0,0.,12.0,0.,12.0
1980-11-14 15:11:01.270 ,6,1,0.,12.0,0.,12.0,0.,12.0,0.,12.0
1980-11-14 15:11:13.270 ,6,1,0.,12.0,0.,12.0,0.,12.0,0.,12.0
1980-11-14 15:11:25.270 ,6,0,0.,12.0,0.,12.0,0.,12.0,0.,12.0
1980-11-14 15:11:37.270 ,6,0,0.,12.0,0.,12.0,0.,12.0,0.,12.0
1980-11-14 15:11:49.270 ,7,1,0.,12.0,0.,12.0,0.,12.0,0.,12.0
1980-11-14 15:12:01.270 ,7,1,0.,12.0,2.,12.0,0.,12.0,0.,12.0
1980-11-14 15:12:13.270 ,7,0,0.,12.0,3.,12.0,0.,12.0,0.,12.0
1980-11-14 15:12:25.270 ,7,0,0.,12.0,4.,12.0,0.,12.0,0.,12.0
1980-11-14 15:12:37.270 ,7,1,0.,12.0,3.,12.0,0.,12.0,0.,12.0
1980-11-14 15:12:49.270 ,7,1,0.,12.0,6.,12.0,0.,12.0,0.,12.0
1980-11-14 15:13:01.270 ,7,0,0.,12.0,3.,12.0,0.,12.0,0.,12.0
1980-11-14 15:13:13.270 ,7,0,0.,12.0,4.,12.0,0.,12.0,0.,12.0
1980-11-14 15:13:25.270 ,6,1,0.,12.0,2.,12.0,0.,12.0,0.,12.0
1980-11-14 15:13:37.270 ,6,1,0.,12.0,1.,12.0,0.,12.0,0.,12.0
1980-11-14 15:13:49.270 ,6,0,0.,12.0,0.,12.0,0.,12.0,0.,12.0
1980-11-14 15:14:01.270 ,6,0,0.,12.0,0.,12.0,0.,12.0,0.,12.0
1980-11-14 15:14:13.270 ,5,1,0.,12.0,0.,12.0,0.,12.0,0.,12.0
1980-11-14 15:14:25.270 ,5,1,0.,12.0,0.,12.0,0.,12.0,0.,12.0
1980-11-14 15:14:37.270 ,5,0,0.,12.0,0.,12.0,0.,12.0,0.,12.0
1980-11-14 15:14:49.270 ,5,0,0.,12.0,0.,12.0,0.,12.0,0.,12.0
1980-11-14 15:15:01.270 ,4,1,0.,12.0,0.,12.0,0.,12.0,0.,12.0
1980-11-14 15:15:13.270 ,4,1,0.,12.0,0.,12.0,0.,12.0,0.,12.0
1980-11-14 15:15:25.270 ,4,0,0.,12.0,0.,12.0,0.,12.0,0.,12.0
1980-11-14 15:15:37.270 ,4,0,0.,12.0,0.,12.0,0.,12.0,0.,12.0
1980-11-14 15:15:49.270 ,3,1,0.,12.0,0.,12.0,0.,12.0,0.,12.0
1980-11-14 15:16:01.270 ,3,1,0.,12.0,0.,12.0,0.,12.0,0.,12.0
1980-11-14 15:16:13.270 ,3,0,0.,12.0,0.,12.0,0.,12.0,0.,12.0
1980-11-14 15:16:25.270 ,3,0,0.,12.0,0.,12.0,0.,12.0,0.,12.0
1980-11-14 15:16:37.270 ,2,1,0.,12.0,0.,12.0,0.,12.0,0.,12.0
1980-11-14 15:16:49.270 ,2,1,0.,12.0,0.,12.0,0.,12.0,0.,12.0
1980-11-14 15:17:01.270 ,2,0,0.,12.0,0.,12.0,0.,12.0,0.,12.0
1980-11-14 15:17:13.270 ,2,0,0.,12.0,0.,12.0,0.,12.0,0.,12.0
1980-11-14 15:17:25.270 ,1,1,0.,12.0,0.,12.0,0.,12.0,0.,12.0
1980-11-14 15:17:37.270 ,1,1,0.,12.0,0.,12.0,0.,12.0,0.,12.0
1980-11-14 15:17:49.270 ,1,0,0.,12.0,0.,12.0,0.,12.0,0.,12.0
1980-11-14 15:18:01.270 ,1,0,0.,12.0,0.,12.0,0.,12.0,0.,12.0
1980-11-14 15:18:13.270 ,0,1,0.,12.0,0.,12.0,0.,12.0,0.,12.0
1980-11-14 15:18:25.270 ,0,1,0.,12.0,0.,12.0,0.,12.0,0.,12.0
1980-11-14 15:18:37.270 ,0,0,0.,12.0,0.,12.0,0.,12.0,0.,12.0
1980-11-14 15:18:49.270 ,0,0,0.,12.0,0.,12.0,0.,12.0,0.,12.0
1980-11-14 15:19:01.270 ,0,1,0.,12.0,0.,12.0,0.,12.0,0.,12.0
1980-11-14 15:19:13.270 ,0,1,0.,12.0,0.,12.0,0.,12.0,0.,12.0
1980-11-14 15:19:25.270 ,0,0,0.,12.0,0.,12.0,0.,12.0,0.,12.0
1980-11-14 15:19:37.270 ,0,0,0.,12.0,0.,12.0,0.,12.0,0.,12.0
1980-11-14 15:19:49.270 ,1,1,0.,12.0,0.,12.0,0.,12.0,0.,12.0
1980-11-14 15:20:01.270 ,1,1,0.,12.0,0.,12.0,0.,12.0,0.,12.0
1980-11-14 15:20:13.270 ,1,0,0.,12.0,0.,12.0,0.,12.0,0.,12.0
1980-11-14 15:20:25.270 ,1,0,0.,12.0,0.,12.0,0.,12.0,0.,12.0
1980-11-14 15:20:37.270 ,2,1,0.,12.0,0.,12.0,0.,12.0,0.,12.0
1980-11-14 15:20:49.270 ,2,1,0.,12.0,0.,12.0,0.,12.0,0.,12.0
1980-11-14 15:21:01.270 ,2,0,0.,12.0,0.,12.0,0.,12.0,0.,12.0
1980-11-14 15:21:13.270 ,2,0,0.,12.0,0.,12.0,0.,12.0,0.,12.0
1980-11-14 15:21:25.270 ,3,1,0.,12.0,0.,12.0,0.,12.0,0.,12.0
1980-11-14 15:21:37.270 ,3,1,0.,12.0,0.,12.0,0.,12.0,0.,12.0
1980-11-14 15:21:49.270 ,3,0,0.,12.0,0.,12.0,0.,12.0,0.,12.0
1980-11-14 15:22:01.270 ,3,0,0.,12.0,0.,12.0,0.,12.0,0.,12.0
1980-11-14 15:22:13.270 ,4,1,0.,12.0,0.,12.0,0.,12.0,0.,12.0
1980-11-14 15:22:25.270 ,4,1,0.,12.0,0.,12.0,0.,12.0,0.,12.0
1980-11-14 15:22:37.270 ,4,0,0.,12.0,0.,12.0,0.,12.0,0.,12.0
1980-11-14 15:22:49.270 ,4,0,0.,12.0,0.,12.0,0.,12.0,0.,12.0
1980-11-14 15:23:01.270 ,5,1,0.,12.0,0.,12.0,0.,12.0,0.,12.0
1980-11-14 15:23:13.270 ,5,1,0.,12.0,0.,12.0,0.,12.0,0.,12.0
1980-11-14 15:23:25.270 ,5,0,0.,12.0,0.,12.0,0.,12.0,0.,12.0
1980-11-14 15:23:37.270 ,5,0,0.,12.0,0.,12.0,0.,12.0,0.,12.0
1980-11-14 15:23:49.270 ,6,1,0.,12.0,0.,12.0,0.,12.0,0.,12.0
1980-11-14 15:24:01.270 ,6,1,0.,12.0,0.,12.0,0.,12.0,0.,12.0
1980-11-14 15:24:13.270 ,6,0,0.,12.0,0.,12.0,0.,12.0,0.,12.0
1980-11-14 15:24:25.270 ,6,0,0.,12.0,0.,12.0,0.,12.0,0.,12.0
1980-11-14 15:24:37.270 ,7,1,0.,12.0,0.,12.0,0.,12.0,0.,12.0
1980-11-14 15:24:49.270 ,7,1,0.,12.0,4.,12.0,0.,12.0,0.,12.0
1980-11-14 15:25:01.270 ,7,0,0.,12.0,8.,12.0,0.,12.0,0.,12.0
1980-11-14 15:25:13.270 ,7,0,0.,12.0,3.,12.0,0.,12.0,0.,12.0
1980-11-14 15:25:25.270 ,7,1,0.,12.0,2.,12.0,0.,12.0,0.,12.0
1980-11-14 15:25:37.270 ,7,1,0.,12.0,7.,12.0,0.,12.0,0.,12.0
1980-11-14 15:25:49.270 ,7,0,0.,12.0,7.,12.0,0.,12.0,0.,12.0
1980-11-14 15:26:01.270 ,7,0,0.,12.0,3.,12.0,0.,12.0,0.,12.0
1980-11-14 15:26:13.270 ,6,1,0.,12.0,4.,12.0,0.,12.0,0.,12.0
1980-11-14 15:26:25.270 ,6,1,0.,12.0,1.,12.0,0.,12.0,0.,12.0
1980-11-14 15:26:37.270 ,6,0,0.,12.0,0.,12.0,0.,12.0,0.,12.0
1980-11-14 15:26:49.270 ,6,0,0.,12.0,0.,12.0,0.,12.0,0.,12.0
1980-11-14 15:27:01.270 ,5,1,0.,12.0,0.,12.0,0.,12.0,0.,12.0
1980-11-14 15:27:13.270 ,5,1,0.,12.0,0.,12.0,0.,12.0,0.,12.0
1980-11-14 15:27:25.270 ,5,0,0.,12.0,0.,12.0,0.,12.0,0.,12.0
1980-11-14 15:27:37.270 ,5,0,0.,12.0,0.,12.0,0.,12.0,0.,12.0
1980-11-14 15:27:49.270 ,4,1,0.,12.0,0.,12.0,0.,12.0,0.,12.0
1980-11-14 15:28:01.270 ,4,1,0.,12.0,0.,12.0,0.,12.0,0.,12.0
1980-11-14 15:28:13.270 ,4,0,0.,12.0,0.,12.0,0.,12.0,0.,12.0
1980-11-14 15:28:25.270 ,4,0,0.,12.0,0.,12.0,0.,12.0,0.,12.0
1980-11-14 15:28:37.270 ,3,1,0.,12.0,0.,12.0,0.,12.0,0.,12.0
1980-11-14 15:28:49.270 ,3,1,0.,12.0,0.,12.0,0.,12.0,0.,12.0
1980-11-14 15:29:01.270 ,3,0,0.,12.0,0.,12.0,0.,12.0,0.,12.0
1980-11-14 15:29:13.270 ,3,0,0.,12.0,0.,12.0,0.,12.0,0.,12.0
1980-11-14 15:29:25.270 ,2,1,0.,12.0,0.,12.0,0.,12.0,0.,12.0
1980-11-14 15:29:37.270 ,2,1,0.,12.0,0.,12.0,0.,12.0,0.,12.0
1980-11-14 15:29:49.270 ,2,0,0.,12.0,0.,12.0,0.,12.0,0.,12.0
1980-11-14 15:30:01.270 ,2,0,0.,12.0,0.,12.0,0.,12.0,0.,12.0
1980-11-14 15:30:13.270 ,1,1,0.,12.0,0.,12.0,0.,12.0,0.,12.0
1980-11-14 15:30:25.270 ,1,1,0.,12.0,0.,12.0,0.,12.0,0.,12.0
1980-11-14 15:30:37.270 ,1,0,0.,12.0,0.,12.0,0.,12.0,0.,12.0
1980-11-14 15:30:49.270 ,1,0,0.,12.0,0.,12.0,0.,12.0,0.,12.0
1980-11-14 15:31:01.270 ,0,1,0.,12.0,0.,12.0,0.,12.0,0.,12.0
1980-11-14 15:31:13.270 ,0,1,0.,12.0,0.,12.0,0.,12.0,0.,12.0
1980-11-14 15:31:25.270 ,0,0,0.,12.0,0.,12.0,0.,12.0,0.,12.0
1980-11-14 15:31:37.270 ,0,0,0.,12.0,0.,12.0,0.,12.0,0.,12.0
1980-11-14 15:31:49.270 ,0,1,0.,12.0,0.,12.0,0.,12.0,0.,12.0
1980-11-14 15:32:01.270 ,0,1,0.,12.0,0.,12.0,0.,12.0,0.,12.0
1980-11-14 15:32:13.270 ,0,0,0.,12.0,0.,12.0,0.,12.0,0.,12.0
1980-11-14 15:32:25.270 ,0,0,0.,12.0,0.,12.0,0.,12.0,0.,12.0
1980-11-14 15:32:37.270 ,1,1,0.,12.0,0.,12.0,0.,12.0,0.,12.0
1980-11-14 15:32:49.270 ,1,1,0.,12.0,0.,12.0,0.,12.0,0.,12.0
1980-11-14 15:33:01.270 ,1,0,0.,12.0,0.,12.0,0.,12.0,0.,12.0
1980-11-14 15:33:13.270 ,1,0,0.,12.0,0.,12.0,0.,12.0,0.,12.0
1980-11-14 15:33:25.270 ,2,1,0.,12.0,0.,12.0,0.,12.0,0.,12.0
1980-11-14 15:33:37.270 ,2,1,0.,12.0,0.,12.0,0.,12.0,0.,12.0
1980-11-14 15:33:49.270 ,2,0,0.,12.0,0.,12.0,0.,12.0,0.,12.0
1980-11-14 15:34:01.270 ,2,0,0.,12.0,0.,12.0,0.,12.0,0.,12.0
1980-11-14 15:34:13.270 ,3,1,0.,12.0,0.,12.0,0.,12.0,0.,12.0
1980-11-14 15:34:25.270 ,3,1,0.,12.0,0.,12.0,0.,12.0,0.,12.0
1980-11-14 15:34:37.270 ,3,0,0.,12.0,0.,12.0,0.,12.0,0.,12.0
1980-11-14 15:34:49.270 ,3,0,0.,12.0,0.,12.0,0.,12.0,0.,12.0
1980-11-14 15:35:01.270 ,4,1,0.,12.0,0.,12.0,0.,12.0,0.,12.0
1980-11-14 15:35:13.270 ,4,1,0.,12.0,0.,12.0,0.,12.0,0.,12.0
1980-11-14 15:35:25.270 ,4,0,0.,12.0,0.,12.0,0.,12.0,0.,12.0
1980-11-14 15:35:37.270 ,4,0,0.,12.0,0.,12.0,0.,12.0,0.,12.0
1980-11-14 15:35:49.270 ,5,1,0.,12.0,0.,12.0,0.,12.0,0.,12.0
1980-11-14 15:36:01.270 ,5,1,0.,12.0,1.,12.0,0.,12.0,0.,12.0
1980-11-14 15:36:13.270 ,5,0,0.,12.0,0.,12.0,0.,12.0,0.,12.0
1980-11-14 15:36:25.270 ,5,0,0.,12.0,0.,12.0,0.,12.0,0.,12.0
1980-11-14 15:36:37.270 ,6,1,0.,12.0,0.,12.0,0.,12.0,0.,12.0
1980-11-14 15:36:49.270 ,6,1,0.,12.0,0.,12.0,0.,12.0,0.,12.0
1980-11-14 15:37:01.270 ,6,0,0.,12.0,0.,12.0,0.,12.0,0.,12.0
1980-11-14 15:37:13.270 ,6,0,0.,12.0,0.,12.0,0.,12.0,0.,12.0
1980-11-14 15:37:25.270 ,7,1,0.,12.0,0.,12.0,0.,12.0,0.,12.0
1980-11-14 15:37:37.270 ,7,1,0.,12.0,4.,12.0,0.,12.0,0.,12.0
1980-11-14 15:37:49.270 ,7,0,0.,12.0,5.,12.0,0.,12.0,1.,12.0
1980-11-14 15:38:01.270 ,7,0,0.,12.0,4.,12.0,0.,12.0,0.,12.0
1980-11-14 15:38:13.270 ,7,1,0.,12.0,7.,12.0,0.,12.0,0.,12.0
1980-11-14 15:38:25.270 ,7,1,0.,12.0,4.,12.0,0.,12.0,0.,12.0
1980-11-14 15:38:37.270 ,7,0,0.,12.0,4.,12.0,0.,12.0,0.,12.0
1980-11-14 15:38:49.270 ,7,0,0.,12.0,4.,12.0,0.,12.0,0.,12.0
1980-11-14 15:39:01.270 ,6,1,0.,12.0,7.,12.0,0.,12.0,0.,12.0
1980-11-14 15:39:13.270 ,6,1,0.,12.0,0.,12.0,0.,12.0,0.,12.0
1980-11-14 15:39:25.270 ,0,0,,0,,0,,0,,0
1980-11-14 15:39:37.270 ,0,0,,0,,0,,0,,0
1980-11-14 15:39:49.270 ,5,1,0.,12.0,0.,12.0,0.,12.0,0.,12.0
1980-11-14 15:40:01.270 ,5,1,0.,12.0,0.,12.0,0.,12.0,0.,12.0
1980-11-14 15:40:13.270 ,5,0,0.,12.0,0.,12.0,0.,12.0,0.,12.0
1980-11-14 15:40:25.270 ,5,0,0.,12.0,0.,12.0,0.,12.0,0.,12.0
1980-11-14 15:40:37.270 ,4,1,0.,12.0,0.,12.0,0.,12.0,0.,12.0
1980-11-14 15:40:49.270 ,4,1,0.,12.0,0.,12.0,0.,12.0,0.,12.0
1980-11-14 15:41:01.270 ,4,0,0.,12.0,0.,12.0,0.,12.0,0.,12.0
1980-11-14 15:41:13.270 ,4,0,0.,12.0,0.,12.0,0.,12.0,0.,12.0
1980-11-14 15:41:25.270 ,3,1,0.,12.0,0.,12.0,0.,12.0,0.,12.0
1980-11-14 15:41:37.270 ,3,1,0.,12.0,0.,12.0,0.,12.0,0.,12.0
1980-11-14 15:41:49.270 ,3,0,0.,12.0,0.,12.0,0.,12.0,0.,12.0
1980-11-14 15:42:01.270 ,3,0,0.,12.0,0.,12.0,0.,12.0,0.,12.0
1980-11-14 15:42:13.270 ,2,1,0.,12.0,0.,12.0,0.,12.0,0.,12.0
1980-11-14 15:42:25.270 ,2,1,0.,12.0,0.,12.0,0.,12.0,0.,12.0
1980-11-14 15:42:37.270 ,2,0,0.,12.0,0.,12.0,0.,12.0,0.,12.0
1980-11-14 15:42:49.270 ,2,0,0.,12.0,0.,12.0,0.,12.0,0.,12.0
1980-11-14 15:43:01.270 ,1,1,0.,12.0,0.,12.0,0.,12.0,0.,12.0
1980-11-14 15:43:13.270 ,1,1,0.,12.0,0.,12.0,0.,12.0,0.,12.0
1980-11-14 15:43:25.270 ,1,0,0.,12.0,0.,12.0,0.,12.0,0.,12.0
1980-11-14 15:43:37.270 ,1,0,0.,12.0,0.,12.0,0.,12.0,0.,12.0
1980-11-14 15:43:49.270 ,0,1,0.,12.0,0.,12.0,0.,12.0,0.,12.0
1980-11-14 15:44:01.270 ,0,1,0.,12.0,0.,12.0,0.,12.0,0.,12.0
1980-11-14 15:44:13.270 ,0,0,0.,12.0,0.,12.0,0.,12.0,0.,12.0
1980-11-14 15:44:25.270 ,0,0,0.,12.0,0.,12.0,0.,12.0,0.,12.0
1980-11-14 15:44:37.270 ,0,1,0.,12.0,0.,12.0,0.,12.0,0.,12.0
1980-11-14 15:44:49.270 ,0,1,0.,12.0,0.,12.0,0.,12.0,0.,12.0
1980-11-14 15:45:01.270 ,0,0,0.,12.0,0.,12.0,0.,12.0,0.,12.0
1980-11-14 15:45:13.270 ,0,0,0.,12.0,0.,12.0,0.,12.0,0.,12.0
1980-11-14 15:45:25.270 ,1,1,0.,12.0,0.,12.0,0.,12.0,0.,12.0
1980-11-14 15:45:37.270 ,1,1,0.,12.0,0.,12.0,0.,12.0,0.,12.0
1980-11-14 15:45:49.270 ,1,0,0.,12.0,0.,12.0,0.,12.0,0.,12.0
1980-11-14 15:46:01.270 ,1,0,0.,12.0,0.,12.0,0.,12.0,0.,12.0
1980-11-14 15:46:13.270 ,2,1,0.,12.0,0.,12.0,0.,12.0,0.,12.0
1980-11-14 15:46:25.270 ,2,1,0.,12.0,0.,12.0,0.,12.0,0.,12.0
1980-11-14 15:46:37.270 ,2,0,0.,12.0,0.,12.0,0.,12.0,0.,12.0
1980-11-14 15:46:49.270 ,2,0,0.,12.0,0.,12.0,0.,12.0,0.,12.0
1980-11-14 15:47:01.270 ,3,1,0.,12.0,0.,12.0,0.,12.0,0.,12.0
1980-11-14 15:47:13.270 ,3,1,0.,12.0,0.,12.0,0.,12.0,0.,12.0
1980-11-14 15:47:25.270 ,3,0,0.,12.0,0.,12.0,0.,12.0,0.,12.0
1980-11-14 15:47:37.270 ,3,0,0.,12.0,0.,12.0,0.,12.0,0.,12.0
1980-11-14 15:47:49.270 ,4,1,0.,12.0,0.,12.0,0.,12.0,0.,12.0
1980-11-14 15:48:01.270 ,4,1,0.,12.0,0.,12.0,0.,12.0,0.,12.0
1980-11-14 15:48:13.270 ,4,0,0.,12.0,0.,12.0,0.,12.0,0.,12.0
1980-11-14 15:48:25.270 ,4,0,0.,12.0,0.,12.0,0.,12.0,0.,12.0
1980-11-14 15:48:37.270 ,5,1,0.,12.0,0.,12.0,0.,12.0,0.,12.0
1980-11-14 15:48:49.270 ,5,1,0.,12.0,0.,12.0,0.,12.0,0.,12.0
1980-11-14 15:49:01.270 ,5,0,0.,12.0,0.,12.0,0.,12.0,0.,12.0
1980-11-14 15:49:13.270 ,5,0,0.,12.0,0.,12.0,0.,12.0,0.,12.0
1980-11-14 15:49:25.270 ,6,1,0.,12.0,0.,12.0,0.,12.0,0.,12.0
1980-11-14 15:49:37.270 ,6,1,0.,12.0,0.,12.0,0.,12.0,0.,12.0
1980-11-14 15:49:49.270 ,6,0,0.,12.0,0.,12.0,0.,12.0,0.,12.0
1980-11-14 15:50:01.270 ,6,0,0.,12.0,0.,12.0,0.,12.0,0.,12.0
1980-11-14 15:50:13.270 ,7,1,0.,12.0,0.,12.0,0.,12.0,0.,12.0
1980-11-14 15:50:25.270 ,7,1,0.,12.0,2.,12.0,0.,12.0,0.,12.0
1980-11-14 15:50:37.270 ,7,0,0.,12.0,5.,12.0,0.,12.0,0.,12.0
1980-11-14 15:50:49.270 ,7,0,0.,12.0,6.,12.0,0.,12.0,0.,12.0
1980-11-14 15:51:01.270 ,7,1,0.,12.0,1.,12.0,0.,12.0,0.,12.0
1980-11-14 15:51:13.270 ,7,1,0.,12.0,3.,12.0,0.,12.0,0.,12.0
1980-11-14 15:51:25.270 ,7,0,0.,12.0,1.,12.0,0.,12.0,0.,12.0
1980-11-14 15:51:37.270 ,7,0,0.,12.0,1.,12.0,0.,12.0,0.,12.0
1980-11-14 15:51:49.270 ,6,1,0.,12.0,4.,12.0,0.,12.0,0.,12.0
1980-11-14 15:52:01.270 ,6,1,0.,12.0,2.,12.0,0.,12.0,0.,12.0
1980-11-14 15:52:13.270 ,6,0,0.,12.0,0.,12.0,0.,12.0,0.,12.0
1980-11-14 15:52:25.270 ,6,0,0.,12.0,0.,12.0,0.,12.0,0.,12.0
1980-11-14 15:52:37.270 ,5,1,0.,12.0,0.,12.0,0.,12.0,0.,12.0
1980-11-14 15:52:49.270 ,5,1,0.,12.0,0.,12.0,0.,12.0,0.,12.0
1980-11-14 15:53:01.270 ,5,0,0.,12.0,0.,12.0,0.,12.0,0.,12.0
1980-11-14 15:53:13.270 ,5,0,0.,12.0,0.,12.0,0.,12.0,0.,12.0
1980-11-14 15:53:25.270 ,4,1,0.,12.0,0.,12.0,0.,12.0,0.,12.0
1980-11-14 15:53:37.270 ,4,1,0.,12.0,0.,12.0,0.,12.0,0.,12.0
1980-11-14 15:53:49.270 ,4,0,0.,12.0,0.,12.0,0.,12.0,0.,12.0
1980-11-14 15:54:01.270 ,4,0,0.,12.0,0.,12.0,0.,12.0,0.,12.0
1980-11-14 15:54:13.270 ,3,1,0.,12.0,0.,12.0,0.,12.0,0.,12.0
1980-11-14 15:54:25.270 ,3,1,0.,12.0,0.,12.0,0.,12.0,0.,12.0
1980-11-14 15:54:37.270 ,3,0,0.,12.0,0.,12.0,0.,12.0,0.,12.0
1980-11-14 15:54:49.270 ,3,0,0.,12.0,0.,12.0,0.,12.0,0.,12.0
1980-11-14 15:55:01.270 ,2,1,0.,12.0,0.,12.0,0.,12.0,0.,12.0
1980-11-14 15:55:13.270 ,2,1,0.,12.0,0.,12.0,0.,12.0,0.,12.0
1980-11-14 15:55:25.270 ,2,0,0.,12.0,0.,12.0,0.,12.0,0.,12.0
1980-11-14 15:55:37.270 ,2,0,0.,12.0,0.,12.0,0.,12.0,0.,12.0
1980-11-14 15:55:49.270 ,1,1,0.,12.0,0.,12.0,0.,12.0,0.,12.0
1980-11-14 15:56:01.270 ,1,1,0.,12.0,0.,12.0,0.,12.0,0.,12.0
1980-11-14 15:56:13.270 ,1,0,0.,12.0,0.,12.0,0.,12.0,0.,12.0
1980-11-14 15:56:25.270 ,1,0,0.,12.0,0.,12.0,0.,12.0,0.,12.0
1980-11-14 15:56:37.270 ,0,1,0.,12.0,0.,12.0,0.,12.0,0.,12.0
1980-11-14 15:56:49.270 ,0,1,0.,12.0,0.,12.0,0.,12.0,0.,12.0
1980-11-14 15:57:01.270 ,0,0,0.,12.0,0.,12.0,0.,12.0,0.,12.0
1980-11-14 15:57:13.270 ,0,0,0.,12.0,0.,12.0,0.,12.0,0.,12.0
1980-11-14 15:57:25.270 ,0,1,0.,12.0,0.,12.0,0.,12.0,0.,12.0
1980-11-14 15:57:37.270 ,0,1,0.,12.0,0.,12.0,0.,12.0,0.,12.0
1980-11-14 15:57:49.270 ,0,0,0.,12.0,0.,12.0,0.,12.0,0.,12.0
1980-11-14 15:58:01.270 ,0,0,0.,12.0,0.,12.0,0.,12.0,0.,12.0
1980-11-14 15:58:13.270 ,1,1,0.,12.0,0.,12.0,0.,12.0,0.,12.0
1980-11-14 15:58:25.270 ,1,1,0.,12.0,0.,12.0,0.,12.0,0.,12.0
1980-11-14 15:58:37.270 ,1,0,0.,12.0,0.,12.0,0.,12.0,0.,12.0
1980-11-14 15:58:49.270 ,1,0,0.,12.0,0.,12.0,0.,12.0,0.,12.0
1980-11-14 15:59:49.270 ,0,0,0.,12.0,1.,12.0,0.,12.0,0.,12.0
1980-11-14 16:00:01.270 ,0,0,0.,12.0,0.,12.0,0.,12.0,0.,12.0
1980-11-14 16:00:13.270 ,0,0,0.,12.0,0.,12.0,0.,12.0,0.,12.0
1980-11-14 16:00:25.270 ,0,0,0.,12.0,0.,12.0,0.,12.0,0.,12.0
1980-11-14 16:00:37.270 ,4,1,0.,12.0,0.,12.0,0.,12.0,0.,12.0
1980-11-14 16:00:49.270 ,4,1,0.,12.0,0.,12.0,0.,12.0,0.,12.0
1980-11-14 16:01:01.270 ,4,0,0.,12.0,0.,12.0,0.,12.0,0.,12.0
1980-11-14 16:01:13.270 ,4,0,0.,12.0,0.,12.0,0.,12.0,0.,12.0
1980-11-14 16:01:25.270 ,5,1,0.,12.0,0.,12.0,0.,12.0,0.,12.0
1980-11-14 16:01:37.270 ,5,1,0.,12.0,0.,12.0,0.,12.0,0.,12.0
1980-11-14 16:01:49.270 ,5,0,0.,12.0,0.,12.0,0.,12.0,0.,12.0
1980-11-14 16:02:01.270 ,5,0,0.,12.0,0.,12.0,0.,12.0,0.,12.0
1980-11-14 16:02:13.270 ,6,1,0.,12.0,0.,12.0,0.,12.0,0.,12.0
1980-11-14 16:02:25.270 ,6,1,0.,12.0,0.,12.0,0.,12.0,0.,12.0
1980-11-14 16:02:37.270 ,6,0,0.,12.0,0.,12.0,0.,12.0,0.,12.0
1980-11-14 16:02:49.270 ,6,0,0.,12.0,0.,12.0,0.,12.0,0.,12.0
1980-11-14 16:03:01.270 ,7,1,0.,12.0,0.,12.0,0.,12.0,0.,12.0
1980-11-14 16:03:13.270 ,7,1,0.,12.0,4.,12.0,0.,12.0,0.,12.0
1980-11-14 16:03:25.270 ,7,0,0.,12.0,3.,12.0,0.,12.0,0.,12.0
1980-11-14 16:03:37.270 ,7,0,0.,12.0,6.,12.0,0.,12.0,0.,12.0
1980-11-14 16:03:49.270 ,7,1,0.,12.0,3.,12.0,0.,12.0,0.,12.0
1980-11-14 16:04:01.270 ,7,1,0.,12.0,2.,12.0,0.,12.0,0.,12.0
1980-11-14 16:04:13.270 ,7,0,0.,12.0,4.,12.0,0.,12.0,0.,12.0
1980-11-14 16:04:25.270 ,7,0,0.,12.0,3.,12.0,0.,12.0,0.,12.0
1980-11-14 16:04:37.270 ,6,1,0.,12.0,6.,12.0,0.,12.0,0.,12.0
1980-11-14 16:04:49.270 ,6,1,0.,12.0,1.,12.0,0.,12.0,0.,12.0
1980-11-14 16:05:01.270 ,6,0,0.,12.0,0.,12.0,0.,12.0,0.,12.0
1980-11-14 16:05:13.270 ,6,0,0.,12.0,0.,12.0,0.,12.0,0.,12.0
1980-11-14 16:05:25.270 ,5,1,0.,12.0,0.,12.0,0.,12.0,0.,12.0
1980-11-14 16:05:37.270 ,5,1,0.,12.0,0.,12.0,0.,12.0,0.,12.0
1980-11-14 16:05:49.270 ,5,0,0.,12.0,0.,12.0,0.,12.0,0.,12.0
1980-11-14 16:06:01.270 ,5,0,0.,12.0,0.,12.0,0.,12.0,0.,12.0
1980-11-14 16:06:13.270 ,4,1,0.,12.0,0.,12.0,0.,12.0,0.,12.0
1980-11-14 16:06:25.270 ,4,1,0.,12.0,0.,12.0,0.,12.0,0.,12.0
1980-11-14 16:06:37.270 ,4,0,0.,12.0,0.,12.0,0.,12.0,0.,12.0
1980-11-14 16:06:49.270 ,4,0,0.,12.0,0.,12.0,0.,12.0,0.,12.0
1980-11-14 16:07:01.270 ,3,1,0.,12.0,0.,12.0,0.,12.0,0.,12.0
1980-11-14 16:07:13.270 ,3,1,0.,12.0,0.,12.0,0.,12.0,0.,12.0
1980-11-14 16:07:25.270 ,3,0,0.,12.0,0.,12.0,0.,12.0,0.,12.0
1980-11-14 16:07:37.270 ,3,0,0.,12.0,0.,12.0,0.,12.0,0.,12.0
1980-11-14 16:07:49.270 ,2,1,0.,12.0,0.,12.0,0.,12.0,0.,12.0
1980-11-14 16:08:01.270 ,2,1,0.,12.0,0.,12.0,0.,12.0,0.,12.0
1980-11-14 16:08:13.270 ,2,0,0.,12.0,0.,12.0,0.,12.0,0.,12.0
1980-11-14 16:08:25.270 ,2,0,0.,12.0,0.,12.0,0.,12.0,0.,12.0
1980-11-14 16:08:37.270 ,1,1,0.,12.0,0.,12.0,0.,12.0,0.,12.0
1980-11-14 16:08:49.270 ,1,1,0.,12.0,0.,12.0,0.,12.0,0.,12.0
1980-11-14 16:09:01.270 ,1,0,0.,12.0,0.,12.0,0.,12.0,0.,12.0
1980-11-14 16:09:13.270 ,1,0,0.,12.0,0.,12.0,0.,12.0,0.,12.0
1980-11-14 16:09:25.270 ,0,1,0.,12.0,0.,12.0,0.,12.0,0.,12.0
1980-11-14 16:09:37.270 ,0,1,0.,12.0,0.,12.0,0.,12.0,0.,12.0
1980-11-14 16:09:49.270 ,0,0,0.,12.0,0.,12.0,0.,12.0,0.,12.0
1980-11-14 16:10:01.270 ,0,0,0.,12.0,0.,12.0,0.,12.0,0.,12.0
1980-11-14 16:10:13.270 ,0,1,0.,12.0,0.,12.0,0.,12.0,0.,12.0
1980-11-14 16:10:25.270 ,0,1,0.,12.0,0.,12.0,0.,12.0,0.,12.0
1980-11-14 16:10:37.270 ,0,0,0.,12.0,0.,12.0,0.,12.0,0.,12.0
1980-11-14 16:10:49.270 ,0,0,0.,12.0,0.,12.0,0.,12.0,0.,12.0
1980-11-14 16:14:07.270 ,0,0,,0,,0,,0,,0
1980-11-14 16:14:19.270 ,0,0,,0,,0,,0,,0
1980-11-14 16:14:17.470 ,0,0,,0,,0,,0,,0
1980-11-14 16:14:29.470 ,0,0,0.,12.0,0.,12.0,0.,12.0,0.,12.0
1980-11-14 16:14:37.270 ,0,0,0.,12.0,0.,12.0,0.,12.0,0.,12.0
1980-11-14 16:14:49.270 ,0,0,0.,12.0,0.,12.0,0.,12.0,0.,12.0
1980-11-14 16:15:01.270 ,6,1,0.,12.0,0.,12.0,0.,12.0,0.,12.0
1980-11-14 16:15:13.270 ,6,1,0.,12.0,0.,12.0,0.,12.0,0.,12.0
1980-11-14 16:15:25.270 ,6,0,0.,12.0,0.,12.0,0.,12.0,0.,12.0
1980-11-14 16:15:37.270 ,6,0,0.,12.0,0.,12.0,0.,12.0,0.,12.0
1980-11-14 16:15:49.270 ,7,1,0.,12.0,0.,12.0,0.,12.0,0.,12.0
1980-11-14 16:16:01.270 ,7,1,0.,12.0,3.,12.0,0.,12.0,0.,12.0
1980-11-14 16:16:13.270 ,7,0,0.,12.0,2.,12.0,0.,12.0,0.,12.0
1980-11-14 16:16:25.270 ,7,0,0.,12.0,4.,12.0,0.,12.0,0.,12.0
1980-11-14 16:16:37.270 ,7,1,0.,12.0,2.,12.0,0.,12.0,0.,12.0
1980-11-14 16:16:49.270 ,7,1,0.,12.0,6.,12.0,0.,12.0,0.,12.0
1980-11-14 16:17:01.270 ,7,0,0.,12.0,5.,12.0,0.,12.0,0.,12.0
1980-11-14 16:17:13.270 ,7,0,0.,12.0,4.,12.0,0.,12.0,0.,12.0
1980-11-14 16:17:25.270 ,6,1,0.,12.0,4.,12.0,0.,12.0,0.,12.0
1980-11-14 16:17:37.270 ,6,1,0.,12.0,0.,12.0,0.,12.0,0.,12.0
1980-11-14 16:17:49.270 ,6,0,0.,12.0,0.,12.0,0.,12.0,0.,12.0
1980-11-14 16:18:01.270 ,6,0,0.,12.0,0.,12.0,0.,12.0,0.,12.0
1980-11-14 16:18:13.270 ,5,1,0.,12.0,0.,12.0,0.,12.0,0.,12.0
1980-11-14 16:18:25.270 ,5,1,0.,12.0,0.,12.0,0.,12.0,0.,12.0
1980-11-14 16:18:37.270 ,5,0,0.,12.0,0.,12.0,0.,12.0,0.,12.0
1980-11-14 16:18:49.270 ,5,0,0.,12.0,0.,12.0,0.,12.0,0.,12.0
1980-11-14 16:19:01.270 ,4,1,0.,12.0,0.,12.0,0.,12.0,0.,12.0
1980-11-14 16:19:13.270 ,4,1,0.,12.0,0.,12.0,0.,12.0,0.,12.0
1980-11-14 16:19:25.270 ,4,0,0.,12.0,0.,12.0,0.,12.0,0.,12.0
1980-11-14 16:19:37.270 ,4,0,0.,12.0,0.,12.0,0.,12.0,0.,12.0
1980-11-14 16:19:49.270 ,3,1,0.,12.0,0.,12.0,0.,12.0,0.,12.0
1980-11-14 16:20:01.270 ,3,1,0.,12.0,0.,12.0,0.,12.0,0.,12.0
1980-11-14 16:20:13.270 ,3,0,0.,12.0,0.,12.0,0.,12.0,0.,12.0
1980-11-14 16:20:25.270 ,3,0,0.,12.0,0.,12.0,0.,12.0,0.,12.0
1980-11-14 16:20:37.270 ,2,1,0.,12.0,0.,12.0,0.,12.0,0.,12.0
1980-11-14 16:20:49.270 ,2,1,0.,12.0,0.,12.0,0.,12.0,0.,12.0
1980-11-14 16:21:01.270 ,2,0,0.,12.0,0.,12.0,0.,12.0,0.,12.0